TimeBST,TemperatureF,Dew PointF,Humidity,Sea Level PressureIn,VisibilityMPH,Wind Direction,Wind SpeedMPH,Gust SpeedMPH,PrecipitationIn,Events,Conditions,WindDirDegrees,DateUTC
12:20 AM,60.8,59.0,94,29.68,5.6,WSW,4.6,-,N/A,,Partly Cloudy,250,2013-08-01 23:20:00
12:50 AM,62.6,60.8,94,29.68,5.0,Variable,3.5,-,N/A,,Mostly Cloudy,0,2013-08-01 23:50:00
1:20 AM,62.6,60.8,94,29.68,5.0,SSE,4.6,-,N/A,,Mostly Cloudy,160,2013-08-02 00:20:00
1:50 AM,62.6,60.8,94,29.68,5.6,SSE,5.8,-,N/A,,Partly Cloudy,160,2013-08-02 00:50:00
2:20 AM,60.8,59.0,94,29.68,3.1,SSE,4.6,-,N/A,,Haze,150,2013-08-02 01:20:00
2:50 AM,60.8,59.0,94,29.68,3.1,SSE,4.6,-,N/A,,Mist,150,2013-08-02 01:50:00
3:20 AM,60.8,60.8,100,29.65,3.7,SSE,5.8,-,N/A,,Unknown,160,2013-08-02 02:20:00
3:50 AM,62.6,60.8,94,29.68,-9999.0,South,9.2,-,N/A,,Clear,180,2013-08-02 02:50:00
4:20 AM,60.8,59.0,94,29.68,5.6,SSW,5.8,-,N/A,,Partly Cloudy,200,2013-08-02 03:20:00
4:50 AM,62.6,59.0,88,29.65,6.2,South,6.9,-,N/A,,Scattered Clouds,180,2013-08-02 03:50:00
5:20 AM,62.6,59.0,88,29.68,6.2,South,10.4,-,N/A,,Mostly Cloudy,180,2013-08-02 04:20:00
5:50 AM,62.6,59.0,88,29.65,6.2,South,11.5,-,N/A,,Partly Cloudy,170,2013-08-02 04:50:00
6:20 AM,62.6,59.0,88,29.68,6.2,South,12.7,-,N/A,,Partly Cloudy,170,2013-08-02 05:20:00
6:50 AM,62.6,59.0,88,29.68,6.2,South,12.7,-,N/A,,Scattered Clouds,170,2013-08-02 05:50:00
7:20 AM,64.4,60.8,88,29.68,6.2,South,11.5,-,N/A,,Scattered Clouds,170,2013-08-02 06:20:00
7:50 AM,64.4,60.8,88,29.68,6.2,South,10.4,-,N/A,,Scattered Clouds,180,2013-08-02 06:50:00
8:20 AM,66.2,60.8,83,29.68,6.2,South,11.5,-,N/A,,Scattered Clouds,170,2013-08-02 07:20:00
8:50 AM,66.2,60.8,83,29.68,6.2,South,13.8,-,N/A,,Scattered Clouds,190,2013-08-02 07:50:00
9:20 AM,66.2,60.8,83,29.68,6.2,South,11.5,-,N/A,,Mostly Cloudy,180,2013-08-02 08:20:00
9:50 AM,68.0,60.8,78,29.68,6.2,SW,11.5,-,N/A,Rain,Light Rain Showers,220,2013-08-02 08:50:00
10:20 AM,68.0,59.0,73,29.68,6.2,SW,13.8,-,N/A,,Scattered Clouds,220,2013-08-02 09:20:00
10:50 AM,69.8,59.0,68,29.71,6.2,SSW,15.0,-,N/A,,Scattered Clouds,210,2013-08-02 09:50:00
11:20 AM,69.8,57.2,64,29.71,6.2,SSW,10.4,-,N/A,,Partly Cloudy,200,2013-08-02 10:20:00
11:50 AM,73.4,57.2,57,29.68,6.2,SSW,15.0,-,N/A,,Scattered Clouds,200,2013-08-02 10:50:00
12:20 PM,73.4,57.2,57,29.68,6.2,SSW,12.7,-,N/A,,Scattered Clouds,200,2013-08-02 11:20:00
12:50 PM,75.2,53.6,47,29.68,6.2,SW,15.0,-,N/A,,Scattered Clouds,220,2013-08-02 11:50:00
1:20 PM,75.2,55.4,50,29.68,6.2,SW,13.8,-,N/A,,Scattered Clouds,220,2013-08-02 12:20:00
1:50 PM,77.0,53.6,44,29.68,6.2,SSW,17.3,-,N/A,,Partly Cloudy,210,2013-08-02 12:50:00
2:20 PM,77.0,53.6,44,29.68,6.2,SW,16.1,-,N/A,,Partly Cloudy,220,2013-08-02 13:20:00
2:50 PM,77.0,53.6,44,29.68,6.2,SW,18.4,-,N/A,,Partly Cloudy,220,2013-08-02 13:50:00
3:20 PM,77.0,51.8,41,29.68,6.2,SSW,18.4,-,N/A,,Partly Cloudy,210,2013-08-02 14:20:00
3:50 PM,75.2,51.8,44,29.68,6.2,SSW,13.8,-,N/A,,Partly Cloudy,210,2013-08-02 14:50:00
4:20 PM,77.0,53.6,44,29.68,6.2,SW,15.0,-,N/A,,Partly Cloudy,230,2013-08-02 15:20:00
4:50 PM,73.4,55.4,53,29.68,6.2,SW,12.7,-,N/A,,Partly Cloudy,230,2013-08-02 15:50:00
5:20 PM,77.0,55.4,47,29.68,6.2,WSW,18.4,-,N/A,,Partly Cloudy,250,2013-08-02 16:20:00
5:50 PM,75.2,51.8,44,29.68,6.2,SW,17.3,-,N/A,,Partly Cloudy,230,2013-08-02 16:50:00
6:20 PM,75.2,51.8,44,29.68,6.2,SSW,16.1,-,N/A,,Partly Cloudy,210,2013-08-02 17:20:00
6:50 PM,73.4,50.0,44,29.68,6.2,SW,16.1,-,N/A,,Partly Cloudy,230,2013-08-02 17:50:00
7:20 PM,73.4,51.8,47,29.68,6.2,SW,13.8,-,N/A,,Partly Cloudy,230,2013-08-02 18:20:00
7:50 PM,71.6,51.8,50,29.68,6.2,SW,11.5,-,N/A,,Partly Cloudy,230,2013-08-02 18:50:00
8:20 PM,69.8,50.0,49,29.68,6.2,SW,11.5,-,N/A,,Partly Cloudy,230,2013-08-02 19:20:00
8:50 PM,68.0,51.8,56,29.71,6.2,SW,9.2,-,N/A,Thunderstorm,Scattered Clouds,230,2013-08-02 19:50:00
9:20 PM,68.0,51.8,56,29.71,6.2,WSW,11.5,-,N/A,Thunderstorm,Scattered Clouds,240,2013-08-02 20:20:00
9:50 PM,66.2,51.8,60,29.71,6.2,SW,9.2,-,N/A,Thunderstorm,Scattered Clouds,230,2013-08-02 20:50:00
10:20 PM,66.2,51.8,60,29.74,6.2,SSW,8.1,-,N/A,Thunderstorm,Scattered Clouds,200,2013-08-02 21:20:00
10:50 PM,66.2,51.8,60,29.74,6.2,SSW,6.9,-,N/A,,Scattered Clouds,210,2013-08-02 21:50:00
11:20 PM,64.4,53.6,68,29.71,6.2,SSW,5.8,-,N/A,,Partly Cloudy,200,2013-08-02 22:20:00
11:50 PM,62.6,53.6,72,29.71,6.2,SSW,9.2,-,N/A,,Partly Cloudy,200,2013-08-02 22:50:00